This is the latest recevied weather packets stored in our database for station/object K7FLA. If no packets are shown the sender has not sent any weather packets the latest 10 day(s).
| Time | Temp. | Humidity | Pressure | Rain* | Wind** | Luminosity | Snow |
|---|---|---|---|---|---|---|---|
| 1788613088 | 14.44° C | 29% | 1095.2 hPa | 0 mm | - | 0 W/m² | - |
| 1788612788 | 14.44° C | 29% | 1095.3 hPa | 0 mm | - | 0 W/m² | - |
| 1788612484 | 14.44° C | 30% | 1095.3 hPa | 0 mm | - | 0 W/m² | - |
| 1788612180 | 14.44° C | 30% | 1095.1 hPa | 0 mm | - | 0 W/m² | - |
| 1788611875 | 14.44° C | 30% | 1095.1 hPa | 0 mm | - | 0 W/m² | - |
| 1788611573 | 14.44° C | 31% | 1095.1 hPa | 0 mm | - | 0 W/m² | - |
| 1788611272 | 14.44° C | 30% | 1095 hPa | 0 mm | - | 0 W/m² | - |
| 1788610971 | 13.89° C | 35% | 1095.2 hPa | 0 mm | - | 0 W/m² | - |
| 1788610666 | 13.89° C | 35% | 1094.9 hPa | 0 mm | - | 0 W/m² | - |
| 1788610363 | 13.89° C | 37% | 1095.1 hPa | 0 mm | - | 0 W/m² | - |
| 1788610061 | 13.89° C | 37% | 1094.9 hPa | 0 mm | - | 0 W/m² | - |
| 1788609756 | 13.89° C | 37% | 1095.1 hPa | 0 mm | - | 0 W/m² | - |
| 1788609452 | 13.89° C | 37% | 1095 hPa | 0 mm | - | 0 W/m² | - |
| 1788609145 | 13.89° C | 38% | 1095 hPa | 0 mm | - | 0 W/m² | - |
| 1788608840 | 13.89° C | 39% | 1095 hPa | 0 mm | - | 0 W/m² | - |
| 1788608539 | 13.89° C | 40% | 1095 hPa | 0 mm | - | 0 W/m² | - |
| 1788608238 | 13.89° C | 38% | 1094.9 hPa | 0 mm | - | 0 W/m² | - |
| 1788607934 | 14.44° C | 37% | 1094.9 hPa | 0 mm | - | 0 W/m² | - |
| 1788607660 | 14.44° C | 36% | 1095.1 hPa | 0 mm | - | 0 W/m² | - |
| 1788607329 | 14.44° C | 36% | 1095.1 hPa | 0 mm | - | 0 W/m² | - |
| 1788607029 | 14.44° C | 35% | 1095 hPa | 0 mm | - | 0 W/m² | - |
| 1788606729 | 14.44° C | 36% | 1095 hPa | 0 mm | - | 0 W/m² | - |
| 1788606428 | 14.44° C | 33% | 1095.3 hPa | 0 mm | - | 0 W/m² | - |
| 1788606123 | 14.44° C | 33% | 1095.1 hPa | 0 mm | - | 0 W/m² | - |
| 1788605818 | 14.44° C | 33% | 1095.2 hPa | 0 mm | - | 0 W/m² | - |
* Rain latest hour (hover to see other rain measurements)
** Current wind speed in m/s (hover to see current wind gust speed)